Cotulla, TX

4:05 PM CST on November 13, 2019 (GMT -0600)
Cotulla-La Salle County

Weather History for KCOT - August, 2019

Change the Weather History Date:

Monday, August 19, 2019

  Actual Average Record
Temperature  
Mean Temperature 90 °F -  
Max Temperature 104 °F 95 °F 106 °F (2011)
Min Temperature 79 °F 73 °F 72 °F (2013)
Cooling Degree Days 26    
Growing Degree Days 40 (Base 50)    
Moisture  
Dew Point 71 °F    
Average Humidity 60    
Maximum Humidity 90    
Minimum Humidity 23    
Precipitation  
Precipitation 0.00 in - - ()
Sea Level Pressure  
Sea Level Pressure 29.90 in    
Wind  
Wind Speed 12 mph (SE)    
Max Wind Speed 24 mph    
Max Gust Speed 30 mph    
Visibility 10 miles    
Events      
Averages and records for this station are not official NWS values.
T = Trace of Precipitation, MM = Missing Value Source: NWS Daily Summary

Daily Weather History Graph

Daily Weather History Graph

Search for Another Location

Airport or City:

Astronomy

Aug. 19, 2019 Rise Set
Actual Time 7:08 AM CDT 8:12 PM CDT
Civil Twilight 6:43 AM CDT 8:36 PM CDT
Nautical Twilight 6:14 AM CDT 9:05 PM CDT
Astronomical Twilight 5:44 AM CDT 9:35 PM CDT
Moon 10:52 PM CDT (8/19) 10:35 AM CDT (8/19)
Length of Visible Light 13h 52m
Length of Day
13h 03m
Waning Gibbous, 85% of the Moon is Illuminated
Aug 19
Waning Gibbous
Aug 23
Last Quarter
Aug 30
New
Sep 5
First Quarter
Sep 13
Full

Hourly Weather History & Observations

Time (CDT) Temp. Heat Index Dew Point Humidity Pressure Visibility Wind Dir Wind Speed Gust Speed Precip Events Conditions
12:53 AM 84.9 °F 91.4 °F 73.0 °F 67% 29.88 in 10.0 mi SSE 15.0 mph - N/A   Clear
1:53 AM 84.0 °F 91.2 °F 73.9 °F 72% 29.87 in 10.0 mi SSE 13.8 mph - N/A   Clear
2:53 AM 82.0 °F 87.9 °F 73.9 °F 76% 29.88 in 10.0 mi SSE 11.5 mph - N/A   Clear
3:53 AM 81.0 °F 86.7 °F 75.0 °F 82% 29.88 in 10.0 mi SSE 9.2 mph - N/A   Clear
4:53 AM 80.1 °F 85.4 °F 75.9 °F 87% 29.88 in 10.0 mi SSE 9.2 mph - N/A   Clear
5:53 AM 79.0 °F - 75.9 °F 90% 29.89 in 10.0 mi ESE 6.9 mph - N/A   Clear
6:53 AM 79.0 °F - 75.9 °F 90% 29.91 in 10.0 mi ESE 8.1 mph - N/A   Clear
7:10 AM 79.0 °F - 75.9 °F 90% 29.94 in 10.0 mi ESE 9.2 mph - N/A   Mostly Cloudy
7:18 AM 79.0 °F - 75.9 °F 90% 29.94 in 10.0 mi ESE 6.9 mph - N/A   Scattered Clouds
7:53 AM 80.1 °F 85.4 °F 75.9 °F 87% 29.92 in 10.0 mi SE 8.1 mph - N/A   Clear
8:53 AM 84.0 °F 92.6 °F 75.9 °F 76% 29.93 in 10.0 mi SSE 13.8 mph - N/A   Partly Cloudy
9:19 AM 84.9 °F 94.1 °F 75.9 °F 74% 29.96 in 10.0 mi SSE 12.7 mph - N/A   Mostly Cloudy
9:53 AM 86.0 °F 95.1 °F 75.0 °F 70% 29.94 in 10.0 mi SSE 13.8 mph 23.0 mph N/A   Mostly Cloudy
10:53 AM 90.0 °F 97.9 °F 73.0 °F 57% 29.95 in 10.0 mi SSE 11.5 mph - N/A   Mostly Cloudy
11:53 AM 93.9 °F 100.8 °F 71.1 °F 47% 29.94 in 10.0 mi SSE 8.1 mph 17.3 mph N/A   Partly Cloudy
12:53 PM 96.1 °F 101.0 °F 68.0 °F 40% 29.92 in 10.0 mi SSE 11.5 mph 19.6 mph N/A   Clear
1:53 PM 99.0 °F 102.3 °F 64.9 °F 33% 29.90 in 10.0 mi SSW 5.8 mph 18.4 mph N/A   Clear
2:53 PM 100.0 °F 103.0 °F 64.0 °F 31% 29.87 in 10.0 mi Variable 5.8 mph 17.3 mph N/A   Scattered Clouds
3:53 PM 102.9 °F 104.2 °F 61.0 °F 25% 29.85 in 10.0 mi SSE 5.8 mph 20.7 mph N/A   Partly Cloudy
4:53 PM 102.9 °F 103.6 °F 60.1 °F 24% 29.83 in 10.0 mi ESE 9.2 mph 20.7 mph N/A   Partly Cloudy
5:53 PM 102.9 °F 103.0 °F 59.0 °F 23% 29.83 in 10.0 mi SSE 10.4 mph - N/A   Partly Cloudy
6:53 PM 102.0 °F 102.2 °F 59.0 °F 24% 29.82 in 10.0 mi ESE 13.8 mph 20.7 mph N/A   Scattered Clouds
7:53 PM 99.0 °F 102.3 °F 64.9 °F 33% 29.83 in 10.0 mi ESE 16.1 mph 25.3 mph N/A   Partly Cloudy
8:53 PM 93.9 °F 102.1 °F 72.0 °F 49% 29.86 in 10.0 mi SE 24.2 mph 29.9 mph N/A   Partly Cloudy
9:53 PM 90.0 °F 97.9 °F 73.0 °F 57% 29.89 in 10.0 mi SE 19.6 mph 28.8 mph N/A   Clear
10:53 PM 88.0 °F 95.6 °F 73.0 °F 61% 29.92 in 10.0 mi SE 15.0 mph - N/A   Clear
11:53 PM 87.1 °F 95.4 °F 73.9 °F 65% 29.94 in 10.0 mi SE 13.8 mph - N/A   Clear